Location: ????????
(41.2031°N, 22.5756°E)
Time: 05:20:36
(UTC+00:00)

CZ-4B R/B - Pass Details

Date: 01 December 2020
Orbit: 390 x 458 km, 97.6° (Epoch: 20 January)

Event Time Altitude Azimuth Distance (km) Brightness Sun altitude
Exits shadow 16:57:23 - 344° (NNW) 1,503 4.1 -21.3°
Reaches altitude 10° 16:57:29 10° 343° (NNW) 1,466 4.0 -21.3°
Maximum altitude 17:00:01 23° 289° (WNW) 926 3.6 -21.7°
Drops below altitude 10° 17:02:34 10° 235° (SW) 1,483 4.9 -22.2°
Sets 17:04:50 0° 220° (SW) 2,355 5.8 -22.6°
